TimePST,TemperatureF,Dew PointF,Humidity,Sea Level PressureIn,VisibilityMPH,Wind Direction,Wind SpeedMPH,Gust SpeedMPH,PrecipitationIn,Events,Conditions,WindDirDegrees,DateUTC
12:56 AM,16.0,12.9,88,30.34,6.0,NNE,6.9,-,N/A,,Clear,30,2013-12-17 08:56:00
1:56 AM,16.0,14.0,92,30.34,-9999.0,North,8.1,-,N/A,,Clear,10,2013-12-17 09:56:00
2:56 AM,15.1,12.0,88,30.33,-9999.0,North,3.5,-,N/A,,Clear,350,2013-12-17 10:56:00
3:31 AM,14.0,10.9,88,30.47,-9999.0,Calm,Calm,-,N/A,,Scattered Clouds,0,2013-12-17 11:31:00
3:42 AM,15.1,12.0,88,30.46,-9999.0,Calm,Calm,-,N/A,,Mostly Cloudy,0,2013-12-17 11:42:00
3:56 AM,14.0,12.0,92,30.32,-9999.0,Calm,Calm,-,N/A,,Mostly Cloudy,0,2013-12-17 11:56:00
4:13 AM,12.0,9.0,88,30.45,-9999.0,Calm,Calm,-,N/A,,Scattered Clouds,0,2013-12-17 12:13:00
4:24 AM,12.0,10.0,92,30.45,-9999.0,Calm,Calm,-,N/A,,Mostly Cloudy,0,2013-12-17 12:24:00
4:56 AM,12.0,10.0,92,30.31,-9999.0,Calm,Calm,-,N/A,,Overcast,0,2013-12-17 12:56:00
5:56 AM,14.0,10.9,88,30.30,-9999.0,Calm,Calm,-,N/A,,Overcast,0,2013-12-17 13:56:00
6:14 AM,12.9,10.9,92,30.44,0.2,Calm,Calm,-,N/A,Fog,Light Freezing Fog,0,2013-12-17 14:14:00
6:54 AM,12.2,8.6,85,30.44,0.5,Calm,Calm,-,N/A,Fog,Light Freezing Fog,0,2013-12-17 14:54:00
6:56 AM,14.0,9.0,80,30.30,0.5,Calm,Calm,-,N/A,Fog,Light Freezing Fog,0,2013-12-17 14:56:00
7:05 AM,14.0,10.0,84,30.44,0.5,Calm,Calm,-,N/A,Fog,Light Freezing Fog,0,2013-12-17 15:05:00
7:12 AM,15.1,9.0,77,30.44,0.5,Calm,Calm,-,N/A,Fog,Light Freezing Fog,0,2013-12-17 15:12:00
7:16 AM,15.1,10.0,80,30.44,0.1,Calm,Calm,-,N/A,,Overcast,0,2013-12-17 15:16:00
7:40 AM,17.1,12.0,81,30.44,0.1,Calm,Calm,-,N/A,,Overcast,0,2013-12-17 15:40:00
7:56 AM,18.0,12.9,81,30.30,0.2,Calm,Calm,-,N/A,,Overcast,0,2013-12-17 15:56:00
8:11 AM,19.0,14.0,81,30.43,0.5,Calm,Calm,-,N/A,,Haze,0,2013-12-17 16:11:00
8:21 AM,19.9,14.0,78,30.43,1.0,Calm,Calm,-,N/A,,Haze,0,2013-12-17 16:21:00
8:56 AM,21.0,16.0,81,30.31,1.5,Calm,Calm,-,N/A,,Haze,0,2013-12-17 16:56:00
9:11 AM,21.9,18.0,85,30.44,3.0,Calm,Calm,-,N/A,,Overcast,0,2013-12-17 17:11:00
9:56 AM,23.0,19.9,88,30.30,6.0,Calm,Calm,-,N/A,,Overcast,0,2013-12-17 17:56:00
10:56 AM,30.0,21.9,72,30.28,9.0,Calm,Calm,-,N/A,,Overcast,0,2013-12-17 18:56:00
11:56 AM,33.1,21.9,64,30.25,10.0,Calm,Calm,-,N/A,,Overcast,0,2013-12-17 19:56:00
12:56 PM,34.0,23.0,64,30.22,9.0,NE,4.6,-,N/A,,Overcast,40,2013-12-17 20:56:00
1:56 PM,34.0,23.0,64,30.19,10.0,ENE,5.8,-,N/A,,Overcast,60,2013-12-17 21:56:00
2:56 PM,33.1,23.0,66,30.19,10.0,NW,3.5,-,N/A,,Overcast,320,2013-12-17 22:56:00
3:56 PM,33.1,21.9,64,30.18,10.0,Calm,Calm,-,N/A,,Overcast,0,2013-12-17 23:56:00
4:56 PM,30.9,21.9,69,30.17,10.0,Calm,Calm,-,N/A,,Overcast,0,2013-12-18 00:56:00
5:56 PM,30.0,21.9,72,30.17,10.0,Calm,Calm,-,N/A,,Mostly Cloudy,0,2013-12-18 01:56:00
6:56 PM,27.0,21.0,78,30.16,10.0,ESE,3.5,-,N/A,,Mostly Cloudy,120,2013-12-18 02:56:00
7:56 PM,25.0,21.0,85,30.15,8.0,NE,3.5,-,N/A,,Mostly Cloudy,40,2013-12-18 03:56:00
8:56 PM,23.0,19.0,85,30.14,8.0,ENE,3.5,-,N/A,,Overcast,60,2013-12-18 04:56:00
9:56 PM,21.9,19.0,89,30.13,8.0,NE,3.5,-,N/A,,Mostly Cloudy,50,2013-12-18 05:56:00
10:56 PM,21.9,18.0,85,30.13,7.0,NNW,4.6,-,N/A,,Clear,330,2013-12-18 06:56:00
11:56 PM,19.9,18.0,92,30.10,6.0,Calm,Calm,-,N/A,,Clear,0,2013-12-18 07:56:00